Regional Weather Roundup
Issued by NWS Kansas City/Pleasant Hill, MO

Home | Current Version | Previous Version | Graphics & Text | Print | Product List | Glossary Off
Versions: 1 2 3 4 5 6 7 8 9 10 11 12 13 14 15 16 17 18 19 20 21 22 23 24 25 26 27 28 29 30 31 32 33 34 35 36 37 38 39 40 41 42 43 44 45 46 47 48 49 50

000
ASUS43 KEAX 021611
RWREAX

WEATHER ROUNDUP FOR EASTERN KANSAS AND NORTHWEST MISSOURI
NATIONAL WEATHER SERVICE KANSAS CITY/PLEASANT HILL MO
1100 AM CDT TUE JUN 02 2015

KSZ040-057-103>105-MOZ028-029-037-043-021700-
...KANSAS CITY METROPOLITAN AREA...

CITY           SKY/WX    TMP DP  RH WIND       PRES   REMARKS
K.C. INTL      PTSUNNY   66  58  75 SE12      30.06F
K.C. DOWNTOWN  CLOUDY    66  55  67 SE10G17   30.06F
LEES SUMMIT    CLOUDY    64  56  75 SE8       30.08F
OLATHE - IXD   MOSUNNY   66  57  72 SE13      30.07F
OLATHE - OJC   MOSUNNY   64  57  78 SE12      30.06F
LAWRENCE       MOSUNNY   68  58  70 E14       30.05F

$$

MOZ001>008-011>017-020>025-030>033-038>040-044>046-053-054-021700-
...NORTHERN AND CENTRAL MISSOURI...

CITY           SKY/WX    TMP DP  RH WIND       PRES   REMARKS
ST. JOSEPH     PTSUNNY   66  56  70 SE12      30.05F
MOSBY          CLOUDY    64  54  68 SE8       30.07F
WARRENSBURG    CLOUDY    64  55  72 SE5       30.10S
WHITEMAN AFB   CLOUDY    64  56  75 SE7       30.09F
CLINTON        PTSUNNY   68  59  73 E8        30.09F
SEDALIA        CLOUDY    65  55  70 SE8       30.12F
WARSAW         CLOUDY    68  57  68 SE5       30.11F
CHILLICOTHE      N/A     64  55  72 S8        30.12F
KIRKSVILLE     CLOUDY    65  57  75 SE8       30.12F

$$

MOZ041-047>049-056>058-063>065-088>090-097-021700-
...EASTERN AND SOUTHERN MISSOURI...

CITY           SKY/WX    TMP DP  RH WIND       PRES   REMARKS
ST. LOUIS INTL MOSUNNY   69  54  58 VRB7      30.13F
SPIRIT OF STL  PTSUNNY   67  55  65 NE7       30.11F
COLUMBIA       CLOUDY    65  56  72 SE6       30.12F
JEFFERSON CITY CLOUDY    65  55  70 SE8       30.12S
ROLLA          CLOUDY    62  56  80 E3        30.11F
LEBANON        CLOUDY    68  57  68 SE5       30.12S
OSAGE BEACH    CLOUDY    64  54  68 SE7       30.12S
SPRINGFIELD    CLOUDY    65  59  81 SE8       30.09F
BRANSON        CLOUDY    63  59  88 SE7       30.11F
NEVADA         CLOUDY    64  59  82 SE3       30.11R
JOPLIN         MOSUNNY   72  64  76 VRB6      30.07S
WEST PLAINS    CLOUDY    65  55  70 VRB3      30.13F
MALDEN         PTSUNNY   64  57  77 N6        30.12F

$$

IAZ060-094-KSZ022-034>040-054-083-096-NEZ052-066-093-021700-
...KANSAS...SOUTHEAST NEBRASKA AND IOWA...

CITY           SKY/WX    TMP DP  RH WIND       PRES   REMARKS
TOPEKA         MOSUNNY   67  59  75 SE9       30.05S
MANHATTAN      HVY RAIN  63  61  93 SE7       30.01F FOG
EMPORIA        PTSUNNY   69  61  75 SE14      30.02F
CHANUTE        MOSUNNY   70  62  76 SE9       30.05F
WICHITA        PTSUNNY   77  63  61 SE15      29.97F
OMAHA          PTSUNNY   67  55  65 SE21      30.02R
LINCOLN        PTSUNNY   68  58  70 SE13      29.98F
FALLS CITY     PTSUNNY   66  57  72 SE14      30.03S
LAMONI         CLOUDY    63  54  72 SE12      30.09F
DES MOINES     CLOUDY    63  53  70 S15       30.08F

$$



USA.gov is the U.S. government's official web portal to all federal, state and local government web resources and services.